World > North America > United States > Michigan > Lansing   City of Lansing, MI

Lansing, MI Hourly Weather Updates

Feedback E-mail the Weather

Quick Clicks

Lansing, MI Weather Maps

°F °C°F °C
Lansing Weather Map
UTC Time: 4/17/2024, 21:58
Your Time:

Lansing, MI Regional Weather

Expires:202404172200;;918865
ASUS43 KDTX 172110
RWRMI 
MICHIGAN HOURLY REGIONAL WEATHER ROUNDUP
NATIONAL WEATHER SERVICE DETROIT/PONTIAC MI
500 PM EDT WED APR 17 2024

NOTE: "FAIR" INDICATES FEW OR NO CLOUDS BELOW 12,000 FEET WITH NO
SIGNIFICANT WEATHER AND/OR OBSTRUCTION TO VISIBILITY.


MIZ047>049-052>055-059>063-066>070-074>076-081>083-172200-
SOUTHEAST LOWER MICHIGAN
  
CITY           SKY/WX    TMP DP  RH WIND       PRES   REMARKS
ADRIAN         PTSUNNY   67  53  61 W22G31    29.67R TC  19           
ALMA           CLOUDY    63  48  59 SW16G31   29.62R TC  17           
ANN ARBOR      LGT RAIN  62  57  83 NW5       29.66R TC  17           
BAD AXE        HVY RAIN  54  50  86 SE8G18    29.67R TC  12           
CARO           CLOUDY    56  56  98 CALM      29.65F TC  14           
DETROIT CITY   LGT RAIN  63  58  83 W7        29.66S TC  17           
DETROIT        CLOUDY    64  60  87 W8        29.66S TC  18           
FLINT          CLOUDY    60  56  86 VRB3      29.65R TC  16           
GROSSE ILE     CLOUDY    62  56  83 SW5       29.66S TC  17           
HILLSDALE      CLOUDY    62  41  45 W18G29    29.69R TC  17           
HOWELL         CLOUDY    62  55  78 SW3       29.65R TC  17           

CITY           SKY/WX    TMP DP  RH WIND       PRES   REMARKS
JACKSON        CLOUDY    63  51  65 W22G31    29.67R TC  17           
LAMBERTVILLE   PTSUNNY   64  58  81 SW6       29.67R TC  18           
LANSING        PTSUNNY   63  50  62 W24G37    29.65R TC  17           
LAPEER         LGT RAIN  57  57  99 CALM      29.65F TC  14           
MASON          CLOUDY    65  48  55 W9G23     29.66R TC  18           
MONROE         CLOUDY    64  60  86 SW7       29.66R TC  18           
PONTIAC        CLOUDY    59  54  83 W3        29.65S TC  15           
PORT HOPE        N/A     50  45  83 SE22G32   29.62F TC  10           
PORT HURON     RAIN      63  57  82 S20G30    29.65R TC  17           
TRI CITIES     PTSUNNY   61  56  83 VRB3      29.62F TC  16           
MIDLAND        CLOUDY    61  56  83 CALM      29.61F TC  16           
TROY           DRIZZLE   61  56  85 NW3       29.68S TC  16           
SAGINAW HB     CLOUDY    59  55  88 VRB3      29.63S TC  15           
$$

SKY/WX - Weather  TMP - Temperature  DP - Dew Point  RH - Humidity
WIND - Wind Direction/Speed PRES - Barometric Pressure VSB - Visibility
WCI - Wind Chill Index E13G22 Wind - East Wind 13 mph/Gusts of 22 mph

Trending Headlines

Trending Entertainment Headlines

Lansing Radar Loop

Use the map search tool if you want to place a location marker on the radar map...

Lansing Quick Facts

National Two Day Weather Forecast


E-mail the Lansing Weather Forecast

Voice your opinion or tell us about page issues...